Terminal Aerodrome Forecast
Issued by NWS Greer, SC

Home | Current Version | Previous Version | Text Only | Print | Product List | Glossary On
Versions: 1 2 3 4 5 6 7 8 9 10 11 12 13 14 15 16 17 18 19 20 21 22 23 24 25 26 27 28 29 30
000
FTUS42 KGSP 081501 AAC
TAFCLT
TAF AMD
KCLT 081501Z 0815/0912 32009G15KT P6SM FEW050 OVC200
     FM081900 32010G20KT P6SM BKN200
     FM090200 33008KT P6SM SCT200
     FM090900 32005KT P6SM FEW250=

USA.gov is the U.S. government's official web portal to all federal, state and local government web resources and services.